Overview Statistics Trail Chart Weather Telemetry Raw packets
 

This is the latest recevied weather packets stored in our database for station/object HB9FHL-13. If no packets are shown the sender has not sent any weather packets the latest 10 day(s).

<< 106 107 108 109 110 111 112 >>
Time Temp. Humidity Pressure Rain* Wind** Luminosity Snow
1787996571 19.44° C - 1017.8 hPa 0 mm - - -
1787996566 19.44° C - 1017.8 hPa 0 mm - - -
1787996270 18.33° C - 1021.4 hPa 0 mm - - -
1787996266 18.33° C - 1021.4 hPa 0 mm - - -
1787995974 18.33° C - 1020.7 hPa 0 mm - - -
1787995974 18.33° C - 1020.7 hPa 0 mm - - -
1787995665 18.89° C - 1022.1 hPa 0 mm - - -
1787995367 17.78° C - 1021.3 hPa 0 mm - - -
1787995364 17.78° C - 1021.3 hPa 0 mm - - -
1787995067 17.78° C - 1019.9 hPa 0 mm - - -
1787995064 17.78° C - 1019.9 hPa 0 mm - - -
1787994768 18.33° C - 1021.1 hPa 0 mm - - -
1787994763 18.33° C - 1021.1 hPa 0 mm - - -
1787994461 18.89° C - 1019.4 hPa 0 mm - - -
1787994164 18.33° C - 1021.4 hPa 0 mm - - -
1787994160 18.33° C - 1021.4 hPa 0 mm - - -
1787993860 18.33° C - 1019.2 hPa 0 mm - - -
1787993559 18.33° C - 1018.4 hPa 0 mm - - -
1787993263 17.78° C - 1022 hPa 0 mm - - -
1787993257 17.78° C - 1022 hPa 0 mm - - -
1787992959 17.78° C - 1020.7 hPa 0 mm - - -
1787992954 17.78° C - 1020.7 hPa 0 mm - - -
1787992658 17.78° C - 1021.3 hPa 0 mm - - -
1787992654 17.78° C - 1021.3 hPa 0 mm - - -
1787992351 17.78° C - 1017.5 hPa 0 mm - - -

* Rain since midnight (hover to see other rain measurements)
** Current wind speed in m/s (hover to see current wind gust speed)